contact:dominique.lefevre@mio.osupytheas.fr, maurice.libes@osupytheas.fr, didier.mallarino@osupytheas.fr
Project:EMSO http://www.emso-fr.org/EMSO-France
Depth: 2436.0 m
Title:EMSO Ligure Ouest : Data MII capteur MICROCAT
DateTime_Computer,Latitude,Longitude,Temperature,Conductivity,Pressure,DateTime_Instrument
DateTime_Computer,Latitude,Longitude,degC,S m-1,dbar,DateTime_Instrument
2021-04-08T00:01:27Z,42.805,6.029,13.3039,4.60056,2469.41,2021-4-08T02:02:35Z
2021-04-08T00:04:30Z,42.805,6.029,13.3038,4.60029,2469.41,2021-4-08T02:05:38Z
2021-04-08T00:07:33Z,42.805,6.029,13.3015,4.60033,2469.386,2021-4-08T02:08:41Z
2021-04-08T00:10:36Z,42.805,6.029,13.3021,4.60011,2469.41,2021-4-08T02:11:44Z
2021-04-08T00:13:39Z,42.805,6.029,13.3036,4.60019,2469.4,2021-4-08T02:14:47Z
2021-04-08T00:16:42Z,42.805,6.029,13.3033,4.60028,2469.424,2021-4-08T02:17:50Z
2021-04-08T00:19:46Z,42.805,6.029,13.3034,4.60014,2469.447,2021-4-08T02:20:54Z
2021-04-08T00:22:49Z,42.805,6.029,13.3033,4.60039,2469.41,2021-4-08T02:23:57Z
2021-04-08T00:25:52Z,42.805,6.029,13.3041,4.60022,2469.47,2021-4-08T02:27:00Z
2021-04-08T00:28:55Z,42.805,6.029,13.3039,4.60031,2469.4,2021-4-08T02:30:03Z
2021-04-08T00:31:58Z,42.805,6.029,13.3033,4.60010,2469.433,2021-4-08T02:33:06Z
2021-04-08T00:35:01Z,42.805,6.029,13.3010,4.60036,2469.447,2021-4-08T02:36:09Z
2021-04-08T00:38:04Z,42.805,6.029,13.3019,4.60051,2469.433,2021-4-08T02:39:12Z
2021-04-08T00:41:07Z,42.805,6.029,13.3009,4.60084,2469.456,2021-4-08T02:42:15Z
2021-04-08T00:44:11Z,42.805,6.029,13.3033,4.60059,2469.41,2021-4-08T02:45:19Z
2021-04-08T00:47:14Z,42.805,6.029,13.3016,4.60086,2469.4,2021-4-08T02:48:22Z
2021-04-08T00:50:17Z,42.805,6.029,13.3024,4.60060,2469.424,2021-4-08T02:51:25Z
2021-04-08T00:53:20Z,42.805,6.029,13.3039,4.60067,2469.433,2021-4-08T02:54:28Z
2021-04-08T00:56:23Z,42.805,6.029,13.3043,4.60073,2469.447,2021-4-08T02:57:31Z
2021-04-08T00:59:26Z,42.805,6.029,13.3041,4.60092,2469.424,2021-4-08T03:00:34Z
2021-04-08T01:02:29Z,42.805,6.029,13.3031,4.60075,2469.424,2021-4-08T03:03:37Z
2021-04-08T01:05:32Z,42.805,6.029,13.3038,4.60081,2469.4,2021-4-08T03:06:40Z
2021-04-08T01:08:35Z,42.805,6.029,13.3032,4.60022,2469.447,2021-4-08T03:09:43Z
2021-04-08T01:11:39Z,42.805,6.029,13.3034,4.60084,2469.447,2021-4-08T03:12:47Z
2021-04-08T01:14:42Z,42.805,6.029,13.3067,4.60054,2469.447,2021-4-08T03:15:50Z
2021-04-08T01:17:45Z,42.805,6.029,13.3070,4.60031,2469.424,2021-4-08T03:18:53Z
2021-04-08T01:20:48Z,42.805,6.029,13.3073,4.60014,2469.424,2021-4-08T03:21:56Z
2021-04-08T01:23:51Z,42.805,6.029,13.3036,4.60039,2469.424,2021-4-08T03:24:59Z
2021-04-08T01:26:54Z,42.805,6.029,13.3039,4.60047,2469.41,2021-4-08T03:28:02Z
2021-04-08T01:29:57Z,42.805,6.029,13.3055,4.60061,2469.433,2021-4-08T03:31:05Z
2021-04-08T01:33:00Z,42.805,6.029,13.3057,4.60037,2469.424,2021-4-08T03:34:08Z
2021-04-08T01:36:04Z,42.805,6.029,13.3082,4.60044,2469.447,2021-4-08T03:37:12Z
2021-04-08T01:39:07Z,42.805,6.029,13.3077,4.60019,2469.47,2021-4-08T03:40:15Z
2021-04-08T01:42:10Z,42.805,6.029,13.3073,4.60021,2469.433,2021-4-08T03:43:18Z
2021-04-08T01:45:13Z,42.805,6.029,13.3084,4.60024,2469.47,2021-4-08T03:46:21Z
2021-04-08T01:48:16Z,42.805,6.029,13.3057,4.60016,2469.447,2021-4-08T03:49:24Z
2021-04-08T01:51:19Z,42.805,6.029,13.3082,4.60024,2469.424,2021-4-08T03:52:27Z
2021-04-08T01:54:22Z,42.805,6.029,13.3085,4.60047,2469.48,2021-4-08T03:55:30Z
2021-04-08T01:57:25Z,42.805,6.029,13.3060,4.60026,2469.41,2021-4-08T03:58:33Z
2021-04-08T02:00:28Z,42.805,6.029,13.3055,4.60042,2469.456,2021-4-08T04:01:36Z
2021-04-08T02:03:32Z,42.805,6.029,13.3044,4.60024,2469.456,2021-4-08T04:04:40Z
2021-04-08T02:06:35Z,42.805,6.029,13.3058,4.60027,2469.447,2021-4-08T04:07:43Z
2021-04-08T02:09:38Z,42.805,6.029,13.3066,4.60045,2469.447,2021-4-08T04:10:46Z
2021-04-08T02:12:41Z,42.805,6.029,13.3061,4.60010,2469.447,2021-4-08T04:13:49Z
2021-04-08T02:15:44Z,42.805,6.029,13.3063,4.60044,2469.48,2021-4-08T04:16:52Z
2021-04-08T02:18:47Z,42.805,6.029,13.3069,4.60046,2469.447,2021-4-08T04:19:55Z
2021-04-08T02:21:50Z,42.805,6.029,13.3069,4.60034,2469.47,2021-4-08T04:22:58Z
2021-04-08T02:24:53Z,42.805,6.029,13.3059,4.60040,2469.48,2021-4-08T04:26:01Z
2021-04-08T02:27:57Z,42.805,6.029,13.3054,4.60034,2469.456,2021-4-08T04:29:05Z
2021-04-08T02:31:00Z,42.805,6.029,13.3044,4.60045,2469.456,2021-4-08T04:32:08Z
2021-04-08T02:34:03Z,42.805,6.029,13.3029,4.60049,2469.456,2021-4-08T04:35:11Z
2021-04-08T02:37:06Z,42.805,6.029,13.3042,4.60028,2469.494,2021-4-08T04:38:14Z
2021-04-08T02:40:09Z,42.805,6.029,13.3058,4.60020,2469.494,2021-4-08T04:41:17Z
2021-04-08T02:43:12Z,42.805,6.029,13.3053,4.60010,2469.47,2021-4-08T04:44:20Z
2021-04-08T02:46:15Z,42.805,6.029,13.3053,4.60011,2469.433,2021-4-08T04:47:23Z
2021-04-08T02:49:18Z,42.805,6.029,13.3046,4.60022,2469.494,2021-4-08T04:50:26Z
2021-04-08T02:52:21Z,42.805,6.029,13.3039,4.60019,2469.494,2021-4-08T04:53:29Z
2021-04-08T02:55:25Z,42.805,6.029,13.3034,4.60011,2469.456,2021-4-08T04:56:33Z
2021-04-08T02:58:28Z,42.805,6.029,13.3044,4.60011,2469.494,2021-4-08T04:59:36Z
2021-04-08T03:01:31Z,42.805,6.029,13.3056,4.60028,2469.47,2021-4-08T05:02:39Z
2021-04-08T03:04:34Z,42.805,6.029,13.3056,4.60031,2469.494,2021-4-08T05:05:42Z
2021-04-08T03:07:37Z,42.805,6.029,13.2999,4.60026,2469.503,2021-4-08T05:08:45Z
2021-04-08T03:10:40Z,42.805,6.029,13.3022,4.60056,2469.494,2021-4-08T05:11:48Z
2021-04-08T03:13:43Z,42.805,6.029,13.3009,4.60107,2469.47,2021-4-08T05:14:51Z
2021-04-08T03:16:46Z,42.805,6.029,13.3020,4.60084,2469.526,2021-4-08T05:17:54Z
2021-04-08T03:19:50Z,42.805,6.029,13.3043,4.60066,2469.456,2021-4-08T05:20:58Z
2021-04-08T03:22:53Z,42.805,6.029,13.3049,4.60081,2469.54,2021-4-08T05:24:01Z
2021-04-08T03:25:56Z,42.805,6.029,13.3042,4.60062,2469.48,2021-4-08T05:27:04Z
2021-04-08T03:28:59Z,42.805,6.029,13.3037,4.60050,2469.526,2021-4-08T05:30:07Z
2021-04-08T03:32:02Z,42.805,6.029,13.3044,4.60048,2469.447,2021-4-08T05:33:10Z
2021-04-08T03:35:05Z,42.805,6.029,13.3054,4.60062,2469.456,2021-4-08T05:36:13Z
2021-04-08T03:38:08Z,42.805,6.029,13.3042,4.60060,2469.494,2021-4-08T05:39:16Z
2021-04-08T03:41:11Z,42.805,6.029,13.3034,4.60038,2469.494,2021-4-08T05:42:19Z
2021-04-08T03:44:14Z,42.805,6.029,13.3044,4.60026,2469.494,2021-4-08T05:45:22Z
2021-04-08T03:47:18Z,42.805,6.029,13.3030,4.60054,2469.494,2021-4-08T05:48:26Z
2021-04-08T03:50:21Z,42.805,6.029,13.3042,4.60047,2469.48,2021-4-08T05:51:29Z
2021-04-08T03:53:24Z,42.805,6.029,13.3036,4.60033,2469.494,2021-4-08T05:54:32Z
2021-04-08T03:56:27Z,42.805,6.029,13.3030,4.60048,2469.503,2021-4-08T05:57:35Z
2021-04-08T03:59:30Z,42.805,6.029,13.3043,4.60054,2469.48,2021-4-08T06:00:38Z
2021-04-08T04:02:33Z,42.805,6.029,13.3038,4.60071,2469.494,2021-4-08T06:03:41Z
2021-04-08T04:05:37Z,42.805,6.029,13.3019,4.60033,2469.494,2021-4-08T06:06:45Z
2021-04-08T04:08:40Z,42.805,6.029,13.3040,4.60038,2469.494,2021-4-08T06:09:48Z
2021-04-08T04:11:43Z,42.805,6.029,13.3043,4.60064,2469.494,2021-4-08T06:12:51Z
2021-04-08T04:14:46Z,42.805,6.029,13.3043,4.60090,2469.494,2021-4-08T06:15:54Z
2021-04-08T04:17:50Z,42.805,6.029,13.3043,4.60034,2469.54,2021-4-08T06:18:58Z
2021-04-08T04:20:53Z,42.805,6.029,13.3043,4.60069,2469.48,2021-4-08T06:22:01Z
2021-04-08T04:23:56Z,42.805,6.029,13.3045,4.60035,2469.48,2021-4-08T06:25:04Z
2021-04-08T04:26:59Z,42.805,6.029,13.3036,4.60037,2469.494,2021-4-08T06:28:07Z
2021-04-08T04:30:02Z,42.805,6.029,13.3040,4.60042,2469.494,2021-4-08T06:31:10Z
2021-04-08T04:33:05Z,42.805,6.029,13.3046,4.60040,2469.48,2021-4-08T06:34:13Z
2021-04-08T04:36:08Z,42.805,6.029,13.3029,4.60022,2469.517,2021-4-08T06:37:16Z
2021-04-08T04:39:11Z,42.805,6.029,13.3026,4.60016,2469.517,2021-4-08T06:40:19Z
2021-04-08T04:42:14Z,42.805,6.029,13.3012,4.60022,2469.47,2021-4-08T06:43:22Z
2021-04-08T04:45:18Z,42.805,6.029,13.3039,4.60041,2469.517,2021-4-08T06:46:26Z
2021-04-08T04:48:21Z,42.805,6.029,13.3034,4.60077,2469.456,2021-4-08T06:49:29Z
2021-04-08T04:51:24Z,42.805,6.029,13.3058,4.60084,2469.48,2021-4-08T06:52:32Z
2021-04-08T04:54:27Z,42.805,6.029,13.3019,4.60074,2469.494,2021-4-08T06:55:35Z
2021-04-08T04:57:30Z,42.805,6.029,13.3007,4.60077,2469.494,2021-4-08T06:58:38Z
2021-04-08T05:00:33Z,42.805,6.029,13.3002,4.60071,2469.494,2021-4-08T07:01:41Z
2021-04-08T05:03:36Z,42.805,6.029,13.3031,4.60092,2469.47,2021-4-08T07:04:44Z
2021-04-08T05:06:39Z,42.805,6.029,13.3035,4.60074,2469.456,2021-4-08T07:07:47Z
2021-04-08T05:09:43Z,42.805,6.029,13.3016,4.60082,2469.456,2021-4-08T07:10:51Z
2021-04-08T05:12:46Z,42.805,6.029,13.3015,4.60092,2469.4,2021-4-08T07:13:54Z
2021-04-08T05:15:49Z,42.805,6.029,13.3021,4.60097,2469.47,2021-4-08T07:16:57Z
2021-04-08T05:18:52Z,42.805,6.029,13.3026,4.60081,2469.433,2021-4-08T07:20:00Z
2021-04-08T05:21:55Z,42.805,6.029,13.3014,4.60094,2469.48,2021-4-08T07:23:03Z
2021-04-08T05:24:58Z,42.805,6.029,13.3015,4.60109,2469.447,2021-4-08T07:26:06Z
2021-04-08T05:28:01Z,42.805,6.029,13.3017,4.60036,2469.47,2021-4-08T07:29:09Z
2021-04-08T05:31:04Z,42.805,6.029,13.3034,4.60014,2469.433,2021-4-08T07:32:12Z
2021-04-08T05:34:07Z,42.805,6.029,13.3018,4.60008,2469.433,2021-4-08T07:35:15Z
2021-04-08T05:37:11Z,42.805,6.029,13.3021,4.60051,2469.433,2021-4-08T07:38:19Z
2021-04-08T05:40:14Z,42.805,6.029,13.3011,4.60098,2469.47,2021-4-08T07:41:22Z
2021-04-08T05:43:17Z,42.805,6.029,13.3004,4.60048,2469.47,2021-4-08T07:44:25Z
2021-04-08T05:46:20Z,42.805,6.029,13.3015,4.60047,2469.47,2021-4-08T07:47:28Z
2021-04-08T05:49:23Z,42.805,6.029,13.3036,4.60051,2469.456,2021-4-08T07:50:31Z
2021-04-08T05:52:26Z,42.805,6.029,13.3008,4.60081,2469.47,2021-4-08T07:53:34Z
2021-04-08T05:55:29Z,42.805,6.029,13.3010,4.60074,2469.494,2021-4-08T07:56:37Z
2021-04-08T05:58:32Z,42.805,6.029,13.3035,4.60059,2469.494,2021-4-08T07:59:40Z
2021-04-08T06:01:36Z,42.805,6.029,13.3000,4.60059,2469.456,2021-4-08T08:02:44Z
2021-04-08T06:04:39Z,42.805,6.029,13.3006,4.60046,2469.456,2021-4-08T08:05:47Z
2021-04-08T06:07:42Z,42.805,6.029,13.2999,4.60066,2469.48,2021-4-08T08:08:50Z
2021-04-08T06:10:45Z,42.805,6.029,13.3012,4.60085,2469.494,2021-4-08T08:11:53Z
2021-04-08T06:13:48Z,42.805,6.029,13.3010,4.60082,2469.433,2021-4-08T08:14:56Z
2021-04-08T06:16:51Z,42.805,6.029,13.3007,4.60060,2469.433,2021-4-08T08:17:59Z
2021-04-08T06:19:54Z,42.805,6.029,13.3014,4.60055,2469.47,2021-4-08T08:21:02Z
2021-04-08T06:22:57Z,42.805,6.029,13.3002,4.60061,2469.456,2021-4-08T08:24:05Z
2021-04-08T06:26:00Z,42.805,6.029,13.3004,4.60051,2469.456,2021-4-08T08:27:08Z
2021-04-08T06:29:04Z,42.805,6.029,13.3005,4.60060,2469.447,2021-4-08T08:30:12Z
2021-04-08T06:32:07Z,42.805,6.029,13.3013,4.60057,2469.433,2021-4-08T08:33:15Z
2021-04-08T06:35:10Z,42.805,6.029,13.3016,4.60042,2469.433,2021-4-08T08:36:18Z
2021-04-08T06:38:13Z,42.805,6.029,13.3004,4.60063,2469.47,2021-4-08T08:39:21Z
2021-04-08T06:41:16Z,42.805,6.029,13.3005,4.60021,2469.433,2021-4-08T08:42:24Z
2021-04-08T06:44:19Z,42.805,6.029,13.3009,4.60047,2469.48,2021-4-08T08:45:27Z
2021-04-08T06:47:22Z,42.805,6.029,13.2989,4.60073,2469.456,2021-4-08T08:48:30Z
2021-04-08T06:50:25Z,42.805,6.029,13.3001,4.60061,2469.456,2021-4-08T08:51:33Z
2021-04-08T06:53:29Z,42.805,6.029,13.3001,4.60052,2469.447,2021-4-08T08:54:37Z
2021-04-08T06:56:32Z,42.805,6.029,13.3024,4.60044,2469.433,2021-4-08T08:57:40Z
2021-04-08T06:59:35Z,42.805,6.029,13.2995,4.60046,2469.456,2021-4-08T09:00:43Z
2021-04-08T07:02:38Z,42.805,6.029,13.2998,4.60028,2469.456,2021-4-08T09:03:46Z
2021-04-08T07:05:41Z,42.805,6.029,13.3002,4.60054,2469.433,2021-4-08T09:06:49Z
2021-04-08T07:08:44Z,42.805,6.029,13.3019,4.60062,2469.433,2021-4-08T09:09:52Z
2021-04-08T07:11:47Z,42.805,6.029,13.3007,4.60051,2469.447,2021-4-08T09:12:55Z
2021-04-08T07:14:50Z,42.805,6.029,13.3000,4.60033,2469.41,2021-4-08T09:15:58Z
2021-04-08T07:17:53Z,42.805,6.029,13.3009,4.60042,2469.47,2021-4-08T09:19:01Z
2021-04-08T07:20:57Z,42.805,6.029,13.2991,4.60033,2469.41,2021-4-08T09:22:05Z
2021-04-08T07:24:00Z,42.805,6.029,13.3004,4.60054,2469.41,2021-4-08T09:25:08Z
2021-04-08T07:27:03Z,42.805,6.029,13.2997,4.60060,2469.41,2021-4-08T09:28:11Z
2021-04-08T07:30:06Z,42.805,6.029,13.3007,4.60051,2469.41,2021-4-08T09:31:14Z
2021-04-08T07:33:09Z,42.805,6.029,13.2993,4.60052,2469.433,2021-4-08T09:34:17Z
2021-04-08T07:36:12Z,42.805,6.029,13.2998,4.60041,2469.41,2021-4-08T09:37:20Z
2021-04-08T07:39:15Z,42.805,6.029,13.3000,4.60064,2469.433,2021-4-08T09:40:23Z
2021-04-08T07:42:18Z,42.805,6.029,13.2997,4.60059,2469.447,2021-4-08T09:43:26Z
2021-04-08T07:45:22Z,42.805,6.029,13.3002,4.60056,2469.41,2021-4-08T09:46:30Z
2021-04-08T07:48:25Z,42.805,6.029,13.3001,4.60086,2469.433,2021-4-08T09:49:33Z
2021-04-08T07:51:28Z,42.805,6.029,13.3012,4.60061,2469.433,2021-4-08T09:52:36Z
2021-04-08T07:54:31Z,42.805,6.029,13.2999,4.60067,2469.456,2021-4-08T09:55:39Z
2021-04-08T07:57:34Z,42.805,6.029,13.3012,4.60061,2469.447,2021-4-08T09:58:42Z
2021-04-08T08:00:37Z,42.805,6.029,13.2996,4.60053,2469.386,2021-4-08T10:01:45Z
2021-04-08T08:03:40Z,42.805,6.029,13.3004,4.60068,2469.424,2021-4-08T10:04:48Z
2021-04-08T08:06:43Z,42.805,6.029,13.3000,4.60049,2469.424,2021-4-08T10:07:51Z
2021-04-08T08:09:46Z,42.805,6.029,13.3003,4.60064,2469.4,2021-4-08T10:10:55Z
2021-04-08T08:12:50Z,42.805,6.029,13.2991,4.60041,2469.4,2021-4-08T10:13:58Z
2021-04-08T08:15:53Z,42.805,6.029,13.3004,4.60045,2469.4,2021-4-08T10:17:01Z
2021-04-08T08:18:56Z,42.805,6.029,13.3009,4.60044,2469.386,2021-4-08T10:20:04Z
2021-04-08T08:21:59Z,42.805,6.029,13.3015,4.60069,2469.41,2021-4-08T10:23:07Z
2021-04-08T08:25:02Z,42.805,6.029,13.3007,4.60066,2469.377,2021-4-08T10:26:10Z
2021-04-08T08:28:05Z,42.805,6.029,13.2996,4.60072,2469.377,2021-4-08T10:29:13Z
2021-04-08T08:31:08Z,42.805,6.029,13.3014,4.60061,2469.4,2021-4-08T10:32:16Z
2021-04-08T08:34:11Z,42.805,6.029,13.3004,4.60066,2469.386,2021-4-08T10:35:20Z
2021-04-08T08:37:15Z,42.805,6.029,13.2996,4.60071,2469.386,2021-4-08T10:38:23Z
2021-04-08T08:40:18Z,42.805,6.029,13.3007,4.60051,2469.4,2021-4-08T10:41:26Z
2021-04-08T08:43:21Z,42.805,6.029,13.3004,4.60054,2469.4,2021-4-08T10:44:29Z
2021-04-08T08:46:24Z,42.805,6.029,13.3011,4.60051,2469.377,2021-4-08T10:47:32Z
2021-04-08T08:49:27Z,42.805,6.029,13.3014,4.60061,2469.386,2021-4-08T10:50:35Z
2021-04-08T08:52:30Z,42.805,6.029,13.3000,4.60056,2469.386,2021-4-08T10:53:38Z
2021-04-08T08:55:33Z,42.805,6.029,13.2996,4.60062,2469.373,2021-4-08T10:56:41Z
2021-04-08T08:58:36Z,42.805,6.029,13.3009,4.60073,2469.354,2021-4-08T10:59:44Z
2021-04-08T09:01:40Z,42.805,6.029,13.3013,4.60088,2469.386,2021-4-08T11:02:48Z
2021-04-08T09:04:43Z,42.805,6.029,13.3000,4.60042,2469.377,2021-4-08T11:05:51Z
2021-04-08T09:07:46Z,42.805,6.029,13.2994,4.60048,2469.34,2021-4-08T11:08:54Z
2021-04-08T09:10:49Z,42.805,6.029,13.3009,4.60055,2469.354,2021-4-08T11:11:57Z
2021-04-08T09:13:52Z,42.805,6.029,13.3020,4.60068,2469.33,2021-4-08T11:15:00Z
2021-04-08T09:16:55Z,42.805,6.029,13.3004,4.60063,2469.34,2021-4-08T11:18:03Z
2021-04-08T09:19:58Z,42.805,6.029,13.2998,4.60073,2469.377,2021-4-08T11:21:06Z
2021-04-08T09:23:01Z,42.805,6.029,13.2998,4.60044,2469.34,2021-4-08T11:24:09Z
2021-04-08T09:26:05Z,42.805,6.029,13.2992,4.60036,2469.354,2021-4-08T11:27:13Z
2021-04-08T09:29:08Z,42.805,6.029,13.2998,4.60044,2469.34,2021-4-08T11:30:16Z
2021-04-08T09:32:11Z,42.805,6.029,13.3000,4.60038,2469.354,2021-4-08T11:33:19Z
2021-04-08T09:35:14Z,42.805,6.029,13.2999,4.60029,2469.354,2021-4-08T11:36:22Z
2021-04-08T09:38:17Z,42.805,6.029,13.2997,4.60052,2469.354,2021-4-08T11:39:25Z
2021-04-08T09:41:20Z,42.805,6.029,13.3011,4.60021,2469.354,2021-4-08T11:42:28Z
2021-04-08T09:44:23Z,42.805,6.029,13.2993,4.60039,2469.307,2021-4-08T11:45:31Z
2021-04-08T09:47:26Z,42.805,6.029,13.3006,4.60070,2469.316,2021-4-08T11:48:34Z
2021-04-08T09:50:30Z,42.805,6.029,13.3003,4.60021,2469.316,2021-4-08T11:51:38Z
2021-04-08T09:53:33Z,42.805,6.029,13.3045,4.60052,2469.293,2021-4-08T11:54:41Z
2021-04-08T09:56:36Z,42.805,6.029,13.2995,4.60070,2469.316,2021-4-08T11:57:44Z
2021-04-08T09:59:39Z,42.805,6.029,13.2996,4.60052,2469.354,2021-4-08T12:00:47Z
2021-04-08T10:02:42Z,42.805,6.029,13.3006,4.60058,2469.27,2021-4-08T12:03:50Z
2021-04-08T10:05:45Z,42.805,6.029,13.2996,4.60064,2469.293,2021-4-08T12:06:53Z
2021-04-08T10:08:48Z,42.805,6.029,13.2991,4.60038,2469.293,2021-4-08T12:09:56Z
2021-04-08T10:11:51Z,42.805,6.029,13.3003,4.60049,2469.307,2021-4-08T12:12:59Z
2021-04-08T10:14:54Z,42.805,6.029,13.2995,4.60044,2469.293,2021-4-08T12:16:03Z
2021-04-08T10:17:58Z,42.805,6.029,13.2998,4.60041,2469.34,2021-4-08T12:19:06Z
2021-04-08T10:21:01Z,42.805,6.029,13.2994,4.60031,2469.284,2021-4-08T12:22:09Z
2021-04-08T10:24:04Z,42.805,6.029,13.2995,4.60032,2469.33,2021-4-08T12:25:12Z
2021-04-08T10:27:07Z,42.805,6.029,13.2993,4.60019,2469.27,2021-4-08T12:28:15Z
2021-04-08T10:30:10Z,42.805,6.029,13.3002,4.60054,2469.27,2021-4-08T12:31:18Z
2021-04-08T10:33:13Z,42.805,6.029,13.3008,4.60045,2469.293,2021-4-08T12:34:21Z
2021-04-08T10:36:16Z,42.805,6.029,13.2998,4.60039,2469.284,2021-4-08T12:37:24Z
2021-04-08T10:39:19Z,42.805,6.029,13.3000,4.60046,2469.284,2021-4-08T12:40:27Z
2021-04-08T10:42:23Z,42.805,6.029,13.3004,4.60033,2469.284,2021-4-08T12:43:31Z
2021-04-08T10:45:26Z,42.805,6.029,13.2991,4.60032,2469.27,2021-4-08T12:46:34Z
2021-04-08T10:48:29Z,42.805,6.029,13.2995,4.60023,2469.293,2021-4-08T12:49:37Z
2021-04-08T10:51:32Z,42.805,6.029,13.2998,4.60039,2469.26,2021-4-08T12:52:40Z
2021-04-08T10:54:35Z,42.805,6.029,13.3002,4.60052,2469.293,2021-4-08T12:55:43Z
2021-04-08T10:57:38Z,42.805,6.029,13.2996,4.60056,2469.279,2021-4-08T12:58:46Z
2021-04-08T11:00:41Z,42.805,6.029,13.2999,4.60033,2469.223,2021-4-08T13:01:49Z
2021-04-08T11:03:44Z,42.805,6.029,13.2998,4.60019,2469.27,2021-4-08T13:04:52Z
2021-04-08T11:06:48Z,42.805,6.029,13.3013,4.60032,2469.246,2021-4-08T13:07:56Z
2021-04-08T11:09:51Z,42.805,6.029,13.3001,4.60057,2469.246,2021-4-08T13:10:59Z
2021-04-08T11:12:54Z,42.805,6.029,13.3013,4.60064,2469.246,2021-4-08T13:14:02Z
2021-04-08T11:15:57Z,42.805,6.029,13.3024,4.60054,2469.237,2021-4-08T13:17:05Z
2021-04-08T11:19:00Z,42.805,6.029,13.2996,4.60071,2469.26,2021-4-08T13:20:08Z
2021-04-08T11:22:03Z,42.805,6.029,13.3023,4.60041,2469.246,2021-4-08T13:23:11Z
2021-04-08T11:25:06Z,42.805,6.029,13.3004,4.60044,2469.2,2021-4-08T13:26:14Z
2021-04-08T11:28:09Z,42.805,6.029,13.3002,4.60064,2469.246,2021-4-08T13:29:17Z
2021-04-08T11:31:13Z,42.805,6.029,13.3030,4.60039,2469.246,2021-4-08T13:32:21Z
2021-04-08T11:34:16Z,42.805,6.029,13.3004,4.60041,2469.246,2021-4-08T13:35:24Z
2021-04-08T11:37:19Z,42.805,6.029,13.3012,4.60047,2469.246,2021-4-08T13:38:27Z
2021-04-08T11:40:22Z,42.805,6.029,13.3016,4.60093,2469.237,2021-4-08T13:41:30Z
2021-04-08T11:43:25Z,42.805,6.029,13.3007,4.60036,2469.237,2021-4-08T13:44:33Z
2021-04-08T11:46:28Z,42.805,6.029,13.3013,4.60048,2469.237,2021-4-08T13:47:36Z
2021-04-08T11:49:31Z,42.805,6.029,13.2994,4.60042,2469.223,2021-4-08T13:50:39Z
2021-04-08T11:52:34Z,42.805,6.029,13.3000,4.60047,2469.26,2021-4-08T13:53:42Z
2021-04-08T11:55:38Z,42.805,6.029,13.3002,4.60074,2469.2,2021-4-08T13:56:46Z
2021-04-08T11:58:41Z,42.805,6.029,13.2998,4.60026,2469.237,2021-4-08T13:59:49Z
2021-04-08T12:01:44Z,42.805,6.029,13.2993,4.60031,2469.237,2021-4-08T14:02:52Z
2021-04-08T12:04:47Z,42.805,6.029,13.3008,4.60062,2469.176,2021-4-08T14:05:55Z
2021-04-08T12:07:50Z,42.805,6.029,13.3010,4.60056,2469.2,2021-4-08T14:08:58Z
2021-04-08T12:10:53Z,42.805,6.029,13.3000,4.60056,2469.223,2021-4-08T14:12:01Z
2021-04-08T12:13:56Z,42.805,6.029,13.2991,4.60019,2469.223,2021-4-08T14:15:04Z
2021-04-08T12:16:59Z,42.805,6.029,13.3000,4.60039,2469.214,2021-4-08T14:18:07Z
2021-04-08T12:20:02Z,42.805,6.029,13.2996,4.60037,2469.223,2021-4-08T14:21:10Z
2021-04-08T12:23:06Z,42.805,6.029,13.3001,4.60019,2469.2,2021-4-08T14:24:14Z
2021-04-08T12:26:09Z,42.805,6.029,13.2991,4.60036,2469.2,2021-4-08T14:27:17Z
2021-04-08T12:29:12Z,42.805,6.029,13.3011,4.60061,2469.176,2021-4-08T14:30:20Z
2021-04-08T12:32:15Z,42.805,6.029,13.2996,4.60028,2469.237,2021-4-08T14:33:23Z
2021-04-08T12:35:18Z,42.805,6.029,13.2993,4.60042,2469.2,2021-4-08T14:36:26Z
2021-04-08T12:38:21Z,42.805,6.029,13.3004,4.60025,2469.2,2021-4-08T14:39:29Z
2021-04-08T12:41:24Z,42.805,6.029,13.2993,4.60028,2469.2,2021-4-08T14:42:32Z
2021-04-08T12:44:27Z,42.805,6.029,13.2995,4.60035,2469.214,2021-4-08T14:45:35Z
2021-04-08T12:47:31Z,42.805,6.029,13.2998,4.60054,2469.223,2021-4-08T14:48:39Z
2021-04-08T12:50:34Z,42.805,6.029,13.3026,4.60039,2469.2,2021-4-08T14:51:42Z
2021-04-08T12:53:37Z,42.805,6.029,13.3026,4.60038,2469.176,2021-4-08T14:54:45Z
2021-04-08T12:56:40Z,42.805,6.029,13.3010,4.60054,2469.214,2021-4-08T14:57:48Z
2021-04-08T12:59:43Z,42.805,6.029,13.3022,4.60054,2469.19,2021-4-08T15:00:51Z
2021-04-08T13:02:46Z,42.805,6.029,13.3016,4.60032,2469.153,2021-4-08T15:03:54Z
2021-04-08T13:05:49Z,42.805,6.029,13.3023,4.60041,2469.237,2021-4-08T15:06:57Z
2021-04-08T13:08:52Z,42.805,6.029,13.3014,4.60066,2469.176,2021-4-08T15:10:00Z
2021-04-08T13:11:56Z,42.805,6.029,13.3027,4.60054,2469.176,2021-4-08T15:13:04Z
2021-04-08T13:14:59Z,42.805,6.029,13.3017,4.60040,2469.214,2021-4-08T15:16:07Z
2021-04-08T13:18:02Z,42.805,6.029,13.3013,4.60061,2469.176,2021-4-08T15:19:10Z
2021-04-08T13:21:05Z,42.805,6.029,13.3003,4.60043,2469.214,2021-4-08T15:22:13Z
2021-04-08T13:24:08Z,42.805,6.029,13.3011,4.60044,2469.2,2021-4-08T15:25:16Z
2021-04-08T13:27:11Z,42.805,6.029,13.2998,4.60057,2469.2,2021-4-08T15:28:19Z
2021-04-08T13:30:14Z,42.805,6.029,13.2994,4.60081,2469.223,2021-4-08T15:31:22Z
2021-04-08T13:33:17Z,42.805,6.029,13.3007,4.60049,2469.2,2021-4-08T15:34:25Z
2021-04-08T13:36:21Z,42.805,6.029,13.3004,4.60045,2469.2,2021-4-08T15:37:29Z
2021-04-08T13:39:24Z,42.805,6.029,13.3008,4.60031,2469.237,2021-4-08T15:40:32Z
2021-04-08T13:42:27Z,42.805,6.029,13.3019,4.60054,2469.2,2021-4-08T15:43:35Z
2021-04-08T13:45:30Z,42.805,6.029,13.3028,4.60038,2469.223,2021-4-08T15:46:38Z
2021-04-08T13:48:33Z,42.805,6.029,13.3013,4.60056,2469.223,2021-4-08T15:49:41Z
2021-04-08T13:51:36Z,42.805,6.029,13.3024,4.60038,2469.2,2021-4-08T15:52:44Z
2021-04-08T13:54:39Z,42.805,6.029,13.3006,4.60059,2469.19,2021-4-08T15:55:47Z
2021-04-08T13:57:42Z,42.805,6.029,13.3006,4.60048,2469.2,2021-4-08T15:58:50Z
2021-04-08T14:00:46Z,42.805,6.029,13.3019,4.60091,2469.153,2021-4-08T16:01:54Z
2021-04-08T14:03:49Z,42.805,6.029,13.3021,4.60064,2469.2,2021-4-08T16:04:57Z
2021-04-08T14:06:52Z,42.805,6.029,13.3017,4.60066,2469.214,2021-4-08T16:08:00Z
2021-04-08T14:09:55Z,42.805,6.029,13.3015,4.60066,2469.176,2021-4-08T16:11:03Z
2021-04-08T14:12:58Z,42.805,6.029,13.3034,4.60063,2469.214,2021-4-08T16:14:06Z
2021-04-08T14:16:01Z,42.805,6.029,13.3038,4.60069,2469.223,2021-4-08T16:17:09Z
2021-04-08T14:19:04Z,42.805,6.029,13.3032,4.60047,2469.223,2021-4-08T16:20:12Z
2021-04-08T14:22:07Z,42.805,6.029,13.3022,4.60056,2469.2,2021-4-08T16:23:15Z
2021-04-08T14:25:10Z,42.805,6.029,13.3046,4.60084,2469.237,2021-4-08T16:26:19Z
2021-04-08T14:28:14Z,42.805,6.029,13.3035,4.60030,2469.176,2021-4-08T16:29:22Z
2021-04-08T14:31:17Z,42.805,6.029,13.3032,4.60106,2469.2,2021-4-08T16:32:25Z
2021-04-08T14:34:20Z,42.805,6.029,13.3029,4.60044,2469.19,2021-4-08T16:35:28Z
2021-04-08T14:37:23Z,42.805,6.029,13.3027,4.60095,2469.214,2021-4-08T16:38:31Z
2021-04-08T14:40:26Z,42.805,6.029,13.3005,4.60087,2469.19,2021-4-08T16:41:34Z
2021-04-08T14:43:29Z,42.805,6.029,13.3019,4.60119,2469.176,2021-4-08T16:44:37Z
2021-04-08T14:46:32Z,42.805,6.029,13.3032,4.60091,2469.223,2021-4-08T16:47:40Z
2021-04-08T14:49:35Z,42.805,6.029,13.3048,4.60065,2469.2,2021-4-08T16:50:44Z
2021-04-08T14:52:39Z,42.805,6.029,13.3026,4.60092,2469.2,2021-4-08T16:53:47Z
2021-04-08T14:55:42Z,42.805,6.029,13.3036,4.60117,2469.214,2021-4-08T16:56:50Z
2021-04-08T14:58:45Z,42.805,6.029,13.3024,4.60084,2469.223,2021-4-08T16:59:53Z
2021-04-08T15:01:48Z,42.805,6.029,13.3044,4.60059,2469.2,2021-4-08T17:02:56Z
2021-04-08T15:04:51Z,42.805,6.029,13.3033,4.60052,2469.237,2021-4-08T17:05:59Z
2021-04-08T15:07:54Z,42.805,6.029,13.3024,4.60078,2469.223,2021-4-08T17:09:02Z
2021-04-08T15:10:57Z,42.805,6.029,13.3060,4.60081,2469.237,2021-4-08T17:12:05Z
2021-04-08T15:14:00Z,42.805,6.029,13.3056,4.60073,2469.237,2021-4-08T17:15:08Z